Location: T�bingen+AIT
(48.5342°N, 9.0700°E)
Time: 20:25:19
(UTC+02:00)

Cosmos 1707 - Pass Details

Date: 14 September 2017
Orbit: 519 x 533 km, 82.5° (Epoch: 19 September)

Event Time Altitude Azimuth Distance (km) Brightness Sun altitude
Rises 20:39:01 0° 356° (N) 2,679 6.6 -10.7°
Reaches altitude 10° 20:41:15 10° 4° (N) 1,787 5.6 -11.0°
Maximum altitude 20:44:59 41° 75° (ENE) 780 3.2 -11.6°
Enters shadow 20:48:11 13° 144° (SE) 1,578 4.7 -12.1°
